Time,TemperatureF,DewpointF,PressureIn,WindDirection,WindDirectionDegrees,WindSpeedMPH,WindSpeedGustMPH,Humidity,HourlyPrecipIn,Conditions,Clouds,dailyrainin,SoftwareType,DateUTC
2013-11-07 00:01:00,52.7,50.7,30.09,SE,128,0.0,0.0,93,0.00,,FEW060,0.00,VWS V14.01,2013-11-07 05:01:00,
2013-11-07 00:02:00,52.7,50.7,30.09,SE,128,0.0,0.0,93,0.00,,FEW060,0.00,VWS V14.01,2013-11-07 05:02:00,
2013-11-07 00:03:00,52.7,50.7,30.09,SE,128,0.0,0.0,93,0.00,,FEW060,0.00,VWS V14.01,2013-11-07 05:03:00,
2013-11-07 00:04:00,52.7,50.7,30.09,SE,128,0.0,0.0,93,0.00,,FEW060,0.00,VWS V14.01,2013-11-07 05:04:00,
2013-11-07 00:05:00,52.7,50.7,30.09,SE,128,0.0,0.0,93,0.00,,FEW060,0.00,VWS V14.01,2013-11-07 05:05:00,
2013-11-07 00:10:00,52.6,50.6,30.09,SE,128,0.0,0.0,93,0.00,,FEW060,0.00,VWS V14.01,2013-11-07 05:10:00,
2013-11-07 00:13:00,52.6,50.6,30.09,SE,128,0.0,0.0,93,0.00,,FEW060,0.00,VWS V14.01,2013-11-07 05:13:00,
2013-11-07 00:18:00,52.5,50.8,30.09,SE,128,0.0,0.0,94,0.00,,FEW060,0.00,VWS V14.01,2013-11-07 05:18:00,
2013-11-07 00:24:00,52.5,50.8,30.09,SE,128,0.0,0.0,94,0.00,,FEW060,0.00,VWS V14.01,2013-11-07 05:24:00,
2013-11-07 00:29:00,52.5,50.8,30.09,SE,128,0.0,0.0,94,0.00,,FEW060,0.00,VWS V14.01,2013-11-07 05:29:00,
2013-11-07 00:34:00,52.4,50.4,30.09,SE,128,0.0,0.0,93,0.00,,FEW060,0.00,VWS V14.01,2013-11-07 05:34:00,
2013-11-07 00:39:00,52.3,50.6,30.09,SE,128,0.0,0.0,94,0.00,,FEW060,0.00,VWS V14.01,2013-11-07 05:39:00,
2013-11-07 00:44:00,52.2,50.5,30.08,SE,128,0.0,0.0,94,0.00,,FEW060,0.00,VWS V14.01,2013-11-07 05:44:00,
2013-11-07 00:49:00,52.2,50.5,30.08,SE,128,0.0,0.0,94,0.00,,FEW060,0.00,VWS V14.01,2013-11-07 05:49:00,
2013-11-07 00:54:00,52.1,50.4,30.08,SE,128,0.0,0.0,94,0.00,,FEW060,0.00,VWS V14.01,2013-11-07 05:54:00,
2013-11-07 00:59:00,52.1,50.1,30.08,SE,128,0.0,0.0,93,0.00,,FEW060,0.00,VWS V14.01,2013-11-07 05:59:00,
2013-11-07 01:04:00,51.9,49.9,30.08,SE,128,0.0,0.0,93,0.00,,FEW090,0.00,VWS V14.01,2013-11-07 06:04:00,
2013-11-07 01:09:00,51.7,49.8,30.07,SE,128,0.0,0.0,93,0.00,,FEW090,0.00,VWS V14.01,2013-11-07 06:09:00,
2013-11-07 01:14:00,51.6,49.9,30.08,SE,128,0.0,0.0,94,0.00,,FEW090,0.00,VWS V14.01,2013-11-07 06:14:00,
2013-11-07 01:19:00,51.5,49.8,30.07,SE,128,0.0,0.0,94,0.00,,FEW090,0.00,VWS V14.01,2013-11-07 06:19:00,
2013-11-07 01:24:00,51.4,49.5,30.07,SE,128,0.0,0.0,93,0.00,,FEW090,0.00,VWS V14.01,2013-11-07 06:24:00,
2013-11-07 01:29:00,51.4,49.7,30.07,SE,128,0.0,0.0,94,0.00,,FEW090,0.00,VWS V14.01,2013-11-07 06:29:00,
2013-11-07 01:34:00,51.3,49.6,30.07,SE,128,0.0,0.0,94,0.00,,FEW090,0.00,VWS V14.01,2013-11-07 06:34:00,
2013-11-07 01:39:00,51.3,49.6,30.07,SE,128,0.0,0.0,94,0.00,,FEW090,0.00,VWS V14.01,2013-11-07 06:39:00,
2013-11-07 01:44:00,51.3,49.6,30.07,SE,128,0.0,0.0,94,0.00,,FEW090,0.00,VWS V14.01,2013-11-07 06:44:00,
2013-11-07 01:49:00,51.3,49.6,30.07,SE,128,0.0,0.0,94,0.00,,FEW090,0.00,VWS V14.01,2013-11-07 06:49:00,
2013-11-07 01:54:00,51.3,49.6,30.06,SE,128,0.0,0.0,94,0.00,,FEW090,0.00,VWS V14.01,2013-11-07 06:54:00,
2013-11-07 01:59:00,51.3,49.9,30.06,SE,128,0.0,0.0,95,0.00,,FEW090,0.00,VWS V14.01,2013-11-07 06:59:00,
2013-11-07 02:04:00,51.4,50.0,30.06,SE,128,0.0,0.0,95,0.00,,BKN250,0.00,VWS V14.01,2013-11-07 07:04:00,
2013-11-07 02:09:00,51.4,50.0,30.06,SE,128,0.0,0.0,95,0.00,,BKN250,0.00,VWS V14.01,2013-11-07 07:09:00,
2013-11-07 02:14:00,51.4,50.0,30.06,SE,128,0.0,0.0,95,0.00,,BKN250,0.00,VWS V14.01,2013-11-07 07:14:00,
2013-11-07 02:33:00,51.5,50.1,30.05,SE,128,0.0,0.0,95,0.00,,BKN250,0.00,VWS V14.01,2013-11-07 07:33:00,
2013-11-07 02:39:00,51.6,50.2,30.04,SE,128,0.0,0.0,95,0.00,,BKN250,0.00,VWS V14.01,2013-11-07 07:39:00,
2013-11-07 02:44:00,51.5,49.8,30.04,SE,128,0.0,0.0,94,0.00,,BKN250,0.00,VWS V14.01,2013-11-07 07:44:00,
2013-11-07 02:49:00,51.5,49.8,30.04,SE,128,0.0,0.0,94,0.00,,BKN250,0.00,VWS V14.01,2013-11-07 07:49:00,
2013-11-07 02:54:00,51.4,49.7,30.04,SE,128,0.0,0.0,94,0.00,,BKN250,0.00,VWS V14.01,2013-11-07 07:54:00,
2013-11-07 02:59:00,51.3,49.6,30.04,SE,128,0.0,0.0,94,0.00,,BKN250,0.00,VWS V14.01,2013-11-07 07:59:00,
2013-11-07 03:04:00,51.3,49.6,30.04,SE,128,0.0,0.0,94,0.00,,FEW250,0.00,VWS V14.01,2013-11-07 08:04:00,
2013-11-07 03:10:00,51.2,49.5,30.03,SE,128,0.0,0.0,94,0.00,,FEW250,0.00,VWS V14.01,2013-11-07 08:10:00,
2013-11-07 03:15:00,51.1,49.4,30.02,SE,128,0.0,0.0,94,0.00,,FEW250,0.00,VWS V14.01,2013-11-07 08:15:00,
2013-11-07 03:20:00,50.9,49.2,30.02,SE,128,0.0,0.0,94,0.00,,FEW250,0.00,VWS V14.01,2013-11-07 08:20:00,
2013-11-07 03:25:00,50.8,49.1,30.02,SE,128,0.0,0.0,94,0.00,,FEW250,0.00,VWS V14.01,2013-11-07 08:25:00,
2013-11-07 03:30:00,50.6,48.9,30.02,SE,128,0.0,0.0,94,0.00,,FEW250,0.00,VWS V14.01,2013-11-07 08:30:00,
2013-11-07 03:35:00,50.5,48.8,30.02,SE,128,0.0,0.0,94,0.00,,FEW250,0.00,VWS V14.01,2013-11-07 08:35:00,
2013-11-07 03:40:00,50.5,48.8,30.02,SE,128,0.0,0.0,94,0.00,,FEW250,0.00,VWS V14.01,2013-11-07 08:40:00,
2013-11-07 03:45:00,50.3,48.6,30.02,SE,128,0.0,0.0,94,0.00,,FEW250,0.00,VWS V14.01,2013-11-07 08:45:00,
2013-11-07 03:50:00,50.2,48.5,30.02,SE,128,0.0,0.0,94,0.00,,FEW250,0.00,VWS V14.01,2013-11-07 08:50:00,
2013-11-07 03:55:00,50.1,48.4,30.02,SE,128,0.0,0.0,94,0.00,,FEW250,0.00,VWS V14.01,2013-11-07 08:55:00,
2013-11-07 04:00:00,50.0,48.3,30.02,SE,128,0.0,0.0,94,0.00,,FEW250,0.00,VWS V14.01,2013-11-07 09:00:00,
2013-11-07 04:05:00,49.9,48.2,30.02,SE,128,0.0,0.0,94,0.00,,SCT250,0.00,VWS V14.01,2013-11-07 09:05:00,
2013-11-07 04:10:00,49.7,48.0,30.01,SE,128,0.0,0.0,94,0.00,,SCT250,0.00,VWS V14.01,2013-11-07 09:10:00,
2013-11-07 04:15:00,49.8,48.2,30.01,SE,128,0.0,0.0,94,0.00,,SCT250,0.00,VWS V14.01,2013-11-07 09:15:00,
2013-11-07 04:20:00,49.8,48.2,30.01,SE,128,0.0,0.0,94,0.00,,SCT250,0.00,VWS V14.01,2013-11-07 09:20:00,
2013-11-07 04:25:00,49.7,48.0,30.01,SE,128,0.0,0.0,94,0.00,,SCT250,0.00,VWS V14.01,2013-11-07 09:25:00,
2013-11-07 04:30:00,49.6,48.0,30.00,SE,128,0.0,0.0,94,0.00,,SCT250,0.00,VWS V14.01,2013-11-07 09:30:00,
2013-11-07 04:35:00,49.4,47.5,30.00,SE,128,0.0,0.0,93,0.00,,SCT250,0.00,VWS V14.01,2013-11-07 09:35:00,
2013-11-07 04:40:00,49.3,47.7,30.00,SE,128,0.0,0.0,94,0.00,,SCT250,0.00,VWS V14.01,2013-11-07 09:40:00,
2013-11-07 04:45:00,49.1,47.5,30.00,SE,128,0.0,0.0,94,0.00,,SCT250,0.00,VWS V14.01,2013-11-07 09:45:00,
2013-11-07 04:50:00,49.1,47.5,29.99,SE,128,0.0,0.0,94,0.00,,SCT250,0.00,VWS V14.01,2013-11-07 09:50:00,
2013-11-07 04:55:00,48.9,47.2,29.99,SE,128,0.0,0.0,94,0.00,,SCT250,0.00,VWS V14.01,2013-11-07 09:55:00,
2013-11-07 05:00:00,48.8,47.2,30.00,SE,128,0.0,0.0,94,0.00,,SCT250,0.00,VWS V14.01,2013-11-07 10:00:00,
2013-11-07 05:05:00,48.7,47.0,29.99,SE,128,0.0,0.0,94,0.00,,SCT250,0.00,VWS V14.01,2013-11-07 10:05:00,
2013-11-07 05:10:00,48.6,47.0,29.99,SE,128,0.0,0.0,94,0.00,,SCT250,0.00,VWS V14.01,2013-11-07 10:10:00,
2013-11-07 05:15:00,48.5,46.9,29.99,SE,128,0.0,0.0,94,0.00,,SCT250,0.00,VWS V14.01,2013-11-07 10:15:00,
2013-11-07 05:20:00,48.4,46.8,29.99,SE,128,0.0,0.0,94,0.00,,SCT250,0.00,VWS V14.01,2013-11-07 10:20:00,
2013-11-07 05:25:00,48.2,46.6,29.99,SE,128,0.0,0.0,94,0.00,,SCT250,0.00,VWS V14.01,2013-11-07 10:25:00,
2013-11-07 05:30:00,48.2,46.6,29.99,SE,128,0.0,0.0,94,0.00,,SCT250,0.00,VWS V14.01,2013-11-07 10:30:00,
2013-11-07 05:35:00,48.1,46.5,29.99,SE,128,0.0,0.0,94,0.00,,SCT250,0.00,VWS V14.01,2013-11-07 10:35:00,
2013-11-07 05:40:00,47.9,46.3,29.99,SE,128,0.0,0.0,94,0.00,,SCT250,0.00,VWS V14.01,2013-11-07 10:40:00,
2013-11-07 05:45:00,47.8,46.2,29.99,SE,128,0.0,0.0,94,0.00,,SCT250,0.00,VWS V14.01,2013-11-07 10:45:00,
2013-11-07 05:50:00,47.7,46.1,29.99,SE,128,0.0,0.0,94,0.00,,SCT250,0.00,VWS V14.01,2013-11-07 10:50:00,
2013-11-07 05:55:00,47.6,46.0,29.99,SE,128,0.0,0.0,94,0.00,,SCT250,0.00,VWS V14.01,2013-11-07 10:55:00,
2013-11-07 06:00:00,47.5,45.9,29.99,SE,128,0.0,0.0,94,0.00,,FEW250,0.00,VWS V14.01,2013-11-07 11:00:00,
2013-11-07 06:05:00,47.4,45.8,29.99,SE,128,0.0,0.0,94,0.00,,FEW250,0.00,VWS V14.01,2013-11-07 11:05:00,
2013-11-07 06:10:00,47.4,46.0,29.99,SE,128,0.0,0.0,95,0.00,,FEW250,0.00,VWS V14.01,2013-11-07 11:10:00,
2013-11-07 06:15:00,47.4,45.8,29.99,SE,128,0.0,0.0,94,0.00,,FEW250,0.00,VWS V14.01,2013-11-07 11:15:00,
2013-11-07 06:20:00,47.3,45.9,29.99,SE,128,0.0,0.0,95,0.00,,FEW250,0.00,VWS V14.01,2013-11-07 11:20:00,
2013-11-07 06:25:00,47.2,45.8,30.00,SE,128,0.0,0.0,95,0.00,,FEW250,0.00,VWS V14.01,2013-11-07 11:25:00,
2013-11-07 06:30:00,47.1,45.7,30.00,SE,128,0.0,0.0,95,0.00,,FEW250,0.00,VWS V14.01,2013-11-07 11:30:00,
2013-11-07 06:35:00,47.0,45.7,30.00,SE,128,0.0,0.0,95,0.00,,FEW250,0.00,VWS V14.01,2013-11-07 11:35:00,
2013-11-07 06:40:00,47.0,45.7,30.00,SE,128,0.0,0.0,95,0.00,,FEW250,0.00,VWS V14.01,2013-11-07 11:40:00,
2013-11-07 06:46:00,47.1,45.7,30.00,SE,128,0.0,0.0,95,0.00,,FEW250,0.00,VWS V14.01,2013-11-07 11:46:00,
2013-11-07 06:51:00,47.1,45.7,30.00,SE,128,0.0,0.0,95,0.00,,FEW250,0.00,VWS V14.01,2013-11-07 11:51:00,
2013-11-07 06:56:00,47.2,45.8,30.00,SE,128,0.0,0.0,95,0.00,,FEW250,0.00,VWS V14.01,2013-11-07 11:56:00,
2013-11-07 07:01:00,47.2,45.8,30.00,SE,128,0.0,0.0,95,0.00,,FEW090,0.00,VWS V14.01,2013-11-07 12:01:00,
2013-11-07 07:06:00,47.3,46.2,29.99,SE,128,0.0,0.0,96,0.00,,FEW090,0.00,VWS V14.01,2013-11-07 12:06:00,
2013-11-07 07:11:00,47.4,46.3,30.00,SE,128,0.0,0.0,96,0.00,,FEW090,0.00,VWS V14.01,2013-11-07 12:11:00,
2013-11-07 07:17:00,47.5,46.4,30.00,SE,128,0.0,0.0,96,0.00,,FEW090,0.00,VWS V14.01,2013-11-07 12:17:00,
2013-11-07 07:22:00,47.6,46.5,30.00,SE,128,0.0,0.0,96,0.00,,FEW090,0.00,VWS V14.01,2013-11-07 12:22:00,
2013-11-07 07:27:00,47.7,46.6,30.00,SE,128,0.0,0.0,96,0.00,,FEW090,0.00,VWS V14.01,2013-11-07 12:27:00,
2013-11-07 07:32:00,47.6,46.2,30.00,SE,128,0.0,0.0,95,0.00,,FEW090,0.00,VWS V14.01,2013-11-07 12:32:00,
2013-11-07 07:37:00,47.7,46.3,30.00,SE,128,0.0,0.0,95,0.00,,FEW090,0.00,VWS V14.01,2013-11-07 12:37:00,
2013-11-07 07:43:00,47.7,46.6,30.00,SE,128,0.0,0.0,96,0.00,,FEW090,0.00,VWS V14.01,2013-11-07 12:43:00,
2013-11-07 07:48:00,47.9,46.8,30.00,SE,128,0.0,0.0,96,0.00,,FEW090,0.00,VWS V14.01,2013-11-07 12:48:00,
2013-11-07 07:53:00,48.0,46.9,30.00,SE,128,0.0,0.0,96,0.00,,FEW090,0.00,VWS V14.01,2013-11-07 12:53:00,
2013-11-07 07:58:00,48.1,47.0,30.00,SE,128,0.0,0.0,96,0.00,,FEW090,0.00,VWS V14.01,2013-11-07 12:58:00,
2013-11-07 08:03:00,48.2,47.1,30.00,SE,128,0.0,0.0,96,0.00,,BKN250,0.00,VWS V14.01,2013-11-07 13:03:00,
2013-11-07 08:08:00,48.4,47.3,30.00,SE,128,0.0,0.0,96,0.00,,BKN250,0.00,VWS V14.01,2013-11-07 13:08:00,
2013-11-07 08:14:00,48.8,47.7,30.00,SE,128,0.0,0.0,96,0.00,,BKN250,0.00,VWS V14.01,2013-11-07 13:14:00,
2013-11-07 08:20:00,49.4,48.6,30.00,SE,128,0.0,0.0,97,0.00,,BKN250,0.00,VWS V14.01,2013-11-07 13:20:00,
2013-11-07 08:25:00,50.0,49.2,30.00,SE,128,0.0,0.0,97,0.00,,BKN250,0.00,VWS V14.01,2013-11-07 13:25:00,
2013-11-07 08:30:00,50.5,49.7,30.00,SE,128,0.0,0.0,97,0.00,,BKN250,0.00,VWS V14.01,2013-11-07 13:30:00,
2013-11-07 08:35:00,50.8,50.0,30.00,SE,128,0.0,0.0,97,0.00,,BKN250,0.00,VWS V14.01,2013-11-07 13:35:00,
2013-11-07 08:40:00,51.5,50.7,30.00,SE,128,0.0,0.0,97,0.00,,BKN250,0.00,VWS V14.01,2013-11-07 13:40:00,
2013-11-07 08:45:00,52.1,51.3,30.00,SE,128,0.0,0.0,97,0.00,,BKN250,0.00,VWS V14.01,2013-11-07 13:45:00,
2013-11-07 08:50:00,53.0,52.2,30.00,SE,128,0.0,0.0,97,0.00,,BKN250,0.00,VWS V14.01,2013-11-07 13:50:00,
2013-11-07 08:55:00,53.9,53.1,30.00,SE,128,0.0,0.0,97,0.00,,BKN250,0.00,VWS V14.01,2013-11-07 13:55:00,
2013-11-07 09:00:00,54.7,53.9,30.00,SE,128,0.0,0.0,97,0.00,,OVC250,0.00,VWS V14.01,2013-11-07 14:00:00,
2013-11-07 09:05:00,55.1,54.3,30.00,SE,128,0.0,0.0,97,0.00,,OVC250,0.00,VWS V14.01,2013-11-07 14:05:00,
2013-11-07 09:10:00,55.6,54.5,30.00,SE,128,0.0,0.0,96,0.00,,OVC250,0.00,VWS V14.01,2013-11-07 14:10:00,
2013-11-07 09:16:00,55.9,54.5,30.00,SE,128,0.0,0.0,95,0.00,,OVC250,0.00,VWS V14.01,2013-11-07 14:16:00,
2013-11-07 09:21:00,56.3,54.6,30.00,SE,128,0.0,0.0,94,0.00,,OVC250,0.00,VWS V14.01,2013-11-07 14:21:00,
2013-11-07 09:26:00,56.5,54.8,30.01,SE,128,0.0,0.0,94,0.00,,OVC250,0.00,VWS V14.01,2013-11-07 14:26:00,
2013-11-07 09:31:00,56.7,55.0,30.01,SE,128,0.0,0.0,94,0.00,,OVC250,0.00,VWS V14.01,2013-11-07 14:31:00,
2013-11-07 09:36:00,57.0,55.0,30.01,SE,128,0.0,0.0,93,0.00,,OVC250,0.00,VWS V14.01,2013-11-07 14:36:00,
2013-11-07 09:41:00,57.1,55.1,30.01,SE,128,0.0,0.0,93,0.00,,OVC250,0.00,VWS V14.01,2013-11-07 14:41:00,
2013-11-07 09:46:00,57.3,55.3,30.00,SE,128,0.0,0.0,93,0.00,,OVC250,0.00,VWS V14.01,2013-11-07 14:46:00,
2013-11-07 09:51:00,57.4,55.4,30.00,SE,128,0.0,0.0,93,0.00,,OVC250,0.00,VWS V14.01,2013-11-07 14:51:00,
2013-11-07 09:56:00,57.7,55.7,30.01,SE,128,0.0,0.0,93,0.00,,OVC250,0.00,VWS V14.01,2013-11-07 14:56:00,
2013-11-07 10:01:00,57.8,55.8,30.00,SE,128,0.0,0.0,93,0.00,,OVC027,0.00,VWS V14.01,2013-11-07 15:01:00,
2013-11-07 10:06:00,58.0,56.0,30.00,SE,128,0.0,0.0,93,0.00,,OVC027,0.00,VWS V14.01,2013-11-07 15:06:00,
2013-11-07 10:11:00,58.1,56.1,30.00,SE,128,0.0,0.0,93,0.00,,OVC027,0.00,VWS V14.01,2013-11-07 15:11:00,
2013-11-07 10:16:00,58.3,56.3,30.00,SE,128,0.0,0.0,93,0.00,,OVC027,0.00,VWS V14.01,2013-11-07 15:16:00,
2013-11-07 10:21:00,58.4,56.1,29.99,SE,128,0.0,0.0,92,0.00,,OVC027,0.00,VWS V14.01,2013-11-07 15:21:00,
2013-11-07 10:26:00,58.6,56.6,29.99,SE,128,0.0,0.0,93,0.00,,OVC027,0.00,VWS V14.01,2013-11-07 15:26:00,
2013-11-07 10:31:00,58.9,56.6,29.98,SE,128,0.0,0.0,92,0.00,,OVC027,0.00,VWS V14.01,2013-11-07 15:31:00,
2013-11-07 10:36:00,59.2,56.9,29.98,SE,128,0.0,0.0,92,0.00,,OVC027,0.00,VWS V14.01,2013-11-07 15:36:00,
2013-11-07 10:41:00,59.6,57.3,29.98,SE,133,0.0,0.0,92,0.00,,OVC027,0.00,VWS V14.01,2013-11-07 15:41:00,
2013-11-07 10:46:00,60.0,57.1,29.98,SE,133,0.0,0.0,90,0.00,,OVC027,0.00,VWS V14.01,2013-11-07 15:46:00,
2013-11-07 10:51:00,60.4,57.5,29.98,SE,133,0.0,0.0,90,0.00,,OVC027,0.00,VWS V14.01,2013-11-07 15:51:00,
2013-11-07 10:56:00,60.7,57.4,29.98,SE,133,0.0,0.0,89,0.00,,OVC027,0.00,VWS V14.01,2013-11-07 15:56:00,
2013-11-07 11:01:00,60.9,57.6,29.98,SE,133,0.0,0.0,89,0.00,,OVC060,0.00,VWS V14.01,2013-11-07 16:01:00,
2013-11-07 11:06:00,61.1,57.8,29.98,SE,133,0.0,0.0,89,0.00,,OVC060,0.00,VWS V14.01,2013-11-07 16:06:00,
2013-11-07 11:11:00,61.2,57.6,29.98,SE,133,0.0,0.0,88,0.00,,OVC060,0.00,VWS V14.01,2013-11-07 16:11:00,
2013-11-07 11:16:00,61.2,57.6,29.98,SE,133,0.0,0.0,88,0.00,,OVC060,0.00,VWS V14.01,2013-11-07 16:16:00,
2013-11-07 11:21:00,61.3,57.7,29.97,SE,133,0.0,0.0,88,0.00,,OVC060,0.00,VWS V14.01,2013-11-07 16:21:00,
2013-11-07 11:26:00,61.3,58.0,29.96,SE,133,0.0,0.0,89,0.00,,OVC060,0.00,VWS V14.01,2013-11-07 16:26:00,
2013-11-07 11:31:00,61.5,57.9,29.97,SE,133,0.0,0.0,88,0.00,,OVC055,0.00,VWS V14.01,2013-11-07 16:31:00,
2013-11-07 11:36:00,61.6,58.0,29.97,SE,133,0.0,0.0,88,0.00,,OVC055,0.00,VWS V14.01,2013-11-07 16:36:00,
2013-11-07 11:41:00,61.7,58.1,29.97,SE,133,0.0,0.0,88,0.00,,OVC055,0.00,VWS V14.01,2013-11-07 16:41:00,
2013-11-07 11:46:00,61.7,58.1,29.97,SE,133,0.0,0.0,88,0.00,,OVC055,0.00,VWS V14.01,2013-11-07 16:46:00,
2013-11-07 11:51:00,61.7,58.1,29.97,SE,133,0.0,0.0,88,0.00,,OVC055,0.00,VWS V14.01,2013-11-07 16:51:00,
2013-11-07 11:56:00,61.7,58.4,29.96,SE,133,0.0,0.0,89,0.00,,OVC055,0.00,VWS V14.01,2013-11-07 16:56:00,
2013-11-07 12:01:00,61.7,58.4,29.96,SE,133,0.0,0.0,89,0.00,,OVC018,0.00,VWS V14.01,2013-11-07 17:01:00,
2013-11-07 12:06:00,61.7,58.4,29.96,SE,133,0.0,0.0,89,0.00,,OVC018,0.00,VWS V14.01,2013-11-07 17:06:00,
2013-11-07 12:11:00,61.8,58.5,29.96,SE,133,0.0,0.0,89,0.00,,OVC018,0.00,VWS V14.01,2013-11-07 17:11:00,
2013-11-07 12:16:00,61.9,58.6,29.96,SE,133,0.0,0.0,89,0.00,,OVC018,0.00,VWS V14.01,2013-11-07 17:16:00,
2013-11-07 12:21:00,62.0,58.7,29.95,SE,133,0.0,0.0,89,0.00,,OVC018,0.00,VWS V14.01,2013-11-07 17:21:00,
2013-11-07 12:26:00,62.2,58.9,29.95,SE,133,0.0,0.0,89,0.00,,OVC018,0.00,VWS V14.01,2013-11-07 17:26:00,
2013-11-07 12:31:00,62.3,59.0,29.95,SE,133,0.0,0.0,89,0.00,,OVC018,0.00,VWS V14.01,2013-11-07 17:31:00,
2013-11-07 12:36:00,62.4,59.1,29.95,SE,133,0.0,0.0,89,0.00,,OVC018,0.00,VWS V14.01,2013-11-07 17:36:00,
2013-11-07 12:41:00,62.5,59.2,29.95,SE,133,0.0,0.0,89,0.00,,OVC018,0.00,VWS V14.01,2013-11-07 17:41:00,
2013-11-07 12:46:00,62.7,59.1,29.95,SE,133,0.0,0.0,88,0.00,,OVC018,0.00,VWS V14.01,2013-11-07 17:46:00,
2013-11-07 12:51:00,62.7,59.1,29.94,SE,133,0.0,0.0,88,0.00,,OVC018,0.00,VWS V14.01,2013-11-07 17:51:00,
2013-11-07 12:56:00,62.9,59.6,29.95,SE,133,0.0,0.0,89,0.00,,OVC018,0.00,VWS V14.01,2013-11-07 17:56:00,
2013-11-07 13:00:00,63.1,59.8,29.94,SSE,159,0.0,0.0,89,0.00,,OVC020,0.00,VWS V14.01,2013-11-07 18:00:00,
2013-11-07 13:06:00,63.4,59.8,29.95,ESE,123,1.0,0.0,88,0.00,,OVC020,0.00,VWS V14.01,2013-11-07 18:06:00,
2013-11-07 13:11:00,63.7,60.1,29.94,SE,124,0.0,0.0,88,0.00,,OVC020,0.00,VWS V14.01,2013-11-07 18:11:00,
2013-11-07 13:16:00,63.9,60.3,29.94,SE,124,0.0,0.0,88,0.00,,OVC020,0.00,VWS V14.01,2013-11-07 18:16:00,
2013-11-07 13:21:00,64.0,60.1,29.95,SE,125,0.0,0.0,87,0.00,,OVC020,0.00,VWS V14.01,2013-11-07 18:21:00,
2013-11-07 13:26:00,64.3,60.0,29.94,SE,124,0.0,0.0,86,0.00,,OVC020,0.00,VWS V14.01,2013-11-07 18:26:00,
2013-11-07 13:31:00,64.6,60.3,29.94,SE,142,0.0,0.0,86,0.00,,OVC043,0.00,VWS V14.01,2013-11-07 18:31:00,
2013-11-07 13:36:00,64.8,60.2,29.94,SE,142,0.0,0.0,85,0.00,,OVC043,0.00,VWS V14.01,2013-11-07 18:36:00,
2013-11-07 13:41:00,65.1,60.2,29.94,South,169,0.0,0.0,84,0.00,,OVC043,0.00,VWS V14.01,2013-11-07 18:41:00,
2013-11-07 13:46:00,65.4,60.5,29.94,South,170,0.0,0.0,84,0.00,,OVC043,0.00,VWS V14.01,2013-11-07 18:46:00,
2013-11-07 13:51:00,65.6,60.0,29.93,ENE,78,1.0,0.0,82,0.00,,OVC043,0.00,VWS V14.01,2013-11-07 18:51:00,
2013-11-07 13:56:00,65.9,60.3,29.93,SSE,152,0.0,0.0,82,0.00,,OVC043,0.00,VWS V14.01,2013-11-07 18:56:00,
2013-11-07 14:01:00,66.3,60.3,29.93,SSW,192,0.0,0.0,81,0.00,,BKN045,0.00,VWS V14.01,2013-11-07 19:01:00,
2013-11-07 14:06:00,66.5,60.2,29.93,NE,42,0.0,0.0,80,0.00,,BKN045,0.00,VWS V14.01,2013-11-07 19:06:00,
2013-11-07 14:11:00,66.5,59.4,29.93,NE,44,0.0,0.0,78,0.00,,BKN045,0.00,VWS V14.01,2013-11-07 19:11:00,
2013-11-07 14:16:00,66.7,59.6,29.93,NE,56,0.0,0.0,78,0.00,,BKN045,0.00,VWS V14.01,2013-11-07 19:16:00,
2013-11-07 14:21:00,67.0,59.6,29.93,NE,56,0.0,0.0,77,0.00,,BKN045,0.00,VWS V14.01,2013-11-07 19:21:00,
2013-11-07 14:26:00,67.2,59.4,29.93,NE,49,0.0,0.0,76,0.00,,BKN045,0.00,VWS V14.01,2013-11-07 19:26:00,
2013-11-07 14:31:00,67.4,59.2,29.93,NE,49,1.0,0.0,75,0.00,,FEW023,0.00,VWS V14.01,2013-11-07 19:31:00,
2013-11-07 14:36:00,67.4,58.8,29.93,North,5,0.0,0.0,74,0.00,,FEW023,0.00,VWS V14.01,2013-11-07 19:36:00,
2013-11-07 14:41:00,67.5,58.9,29.93,NNE,15,0.0,0.0,74,0.00,,FEW023,0.00,VWS V14.01,2013-11-07 19:41:00,
2013-11-07 14:46:00,67.7,59.5,29.93,NNE,26,0.0,0.0,75,0.00,,FEW023,0.00,VWS V14.01,2013-11-07 19:46:00,
2013-11-07 14:51:00,67.8,59.2,29.92,NE,35,0.0,0.0,74,0.00,,FEW023,0.00,VWS V14.01,2013-11-07 19:51:00,
2013-11-07 14:56:00,67.8,58.8,29.93,NE,35,0.0,0.0,73,0.00,,FEW023,0.00,VWS V14.01,2013-11-07 19:56:00,
2013-11-07 15:02:00,67.9,58.5,29.93,NE,44,0.0,0.0,72,0.00,,BKN250,0.00,VWS V14.01,2013-11-07 20:02:00,
2013-11-07 15:07:00,68.1,58.3,29.93,East,85,1.0,0.0,71,0.00,,BKN250,0.00,VWS V14.01,2013-11-07 20:07:00,
2013-11-07 15:12:00,68.0,58.3,29.93,NE,43,1.0,0.0,71,0.00,,BKN250,0.00,VWS V14.01,2013-11-07 20:12:00,
2013-11-07 15:17:00,67.9,58.2,29.93,NE,38,1.0,0.0,71,0.00,,BKN250,0.00,VWS V14.01,2013-11-07 20:17:00,
2013-11-07 15:22:00,67.9,57.8,29.93,North,355,2.0,0.0,70,0.00,,BKN250,0.00,VWS V14.01,2013-11-07 20:22:00,
2013-11-07 15:27:00,67.9,57.8,29.93,NE,55,0.0,0.0,70,0.00,,BKN250,0.00,VWS V14.01,2013-11-07 20:27:00,
2013-11-07 15:32:00,67.9,58.2,29.93,NE,55,1.0,0.0,71,0.00,,BKN250,0.00,VWS V14.01,2013-11-07 20:32:00,
2013-11-07 15:37:00,67.8,57.7,29.93,NNE,28,1.0,0.0,70,0.00,,BKN250,0.00,VWS V14.01,2013-11-07 20:37:00,
2013-11-07 15:42:00,67.8,56.9,29.93,NNE,31,0.0,0.0,68,0.00,,BKN250,0.00,VWS V14.01,2013-11-07 20:42:00,
2013-11-07 15:47:00,67.9,57.0,29.93,NE,34,0.0,0.0,68,0.00,,BKN250,0.00,VWS V14.01,2013-11-07 20:47:00,
2013-11-07 15:52:00,67.9,57.0,29.93,NE,34,0.0,0.0,68,0.00,,BKN250,0.00,VWS V14.01,2013-11-07 20:52:00,
2013-11-07 15:57:00,67.9,56.1,29.93,NNE,33,1.0,0.0,66,0.00,,BKN250,0.00,VWS V14.01,2013-11-07 20:57:00,
2013-11-07 16:02:00,67.9,56.5,29.93,NNE,19,2.0,0.0,67,0.00,,BKN250,0.00,VWS V14.01,2013-11-07 21:02:00,
2013-11-07 16:07:00,68.1,56.7,29.94,NNE,16,0.0,0.0,67,0.00,,BKN250,0.00,VWS V14.01,2013-11-07 21:07:00,
2013-11-07 16:12:00,68.3,56.5,29.94,NNE,28,0.0,0.0,66,0.00,,BKN250,0.00,VWS V14.01,2013-11-07 21:12:00,
2013-11-07 16:17:00,68.3,56.1,29.94,NE,40,0.0,0.0,65,0.00,,BKN250,0.00,VWS V14.01,2013-11-07 21:17:00,
2013-11-07 16:22:00,68.1,55.5,29.94,NE,40,0.0,0.0,64,0.00,,BKN250,0.00,VWS V14.01,2013-11-07 21:22:00,
2013-11-07 16:27:00,68.2,55.6,29.94,NE,34,2.0,0.0,64,0.00,,BKN250,0.00,VWS V14.01,2013-11-07 21:27:00,
2013-11-07 16:32:00,68.2,55.6,29.95,ENE,75,0.0,0.0,64,0.00,,BKN250,0.00,VWS V14.01,2013-11-07 21:32:00,
2013-11-07 16:37:00,68.0,52.2,29.95,ENE,63,2.0,0.0,57,0.00,,BKN250,0.00,VWS V14.01,2013-11-07 21:37:00,
2013-11-07 16:42:00,67.5,50.3,29.95,NNE,20,0.0,0.0,54,0.00,,BKN250,0.00,VWS V14.01,2013-11-07 21:42:00,
2013-11-07 16:47:00,66.9,49.2,29.95,ENE,58,2.0,0.0,53,0.00,,BKN250,0.00,VWS V14.01,2013-11-07 21:47:00,
2013-11-07 16:52:00,66.4,48.8,29.96,NNE,31,2.0,0.0,53,0.00,,BKN250,0.00,VWS V14.01,2013-11-07 21:52:00,
2013-11-07 16:57:00,65.8,48.2,29.97,NNE,17,2.0,0.0,53,0.00,,BKN250,0.00,VWS V14.01,2013-11-07 21:57:00,
2013-11-07 17:02:00,65.2,47.7,29.97,East,95,0.0,0.0,53,0.00,,SCT250,0.00,VWS V14.01,2013-11-07 22:02:00,
2013-11-07 17:07:00,64.6,46.1,29.97,NE,53,2.0,0.0,51,0.00,,SCT250,0.00,VWS V14.01,2013-11-07 22:07:00,
2013-11-07 17:12:00,64.1,45.1,29.98,North,360,4.0,0.0,50,0.00,,SCT250,0.00,VWS V14.01,2013-11-07 22:12:00,
2013-11-07 17:17:00,63.5,44.5,29.98,North,5,0.0,0.0,50,0.00,,SCT250,0.00,VWS V14.01,2013-11-07 22:17:00,
2013-11-07 17:22:00,62.9,43.5,29.99,NE,40,2.0,0.0,49,0.00,,SCT250,0.00,VWS V14.01,2013-11-07 22:22:00,
2013-11-07 17:27:00,62.4,43.0,29.99,ENE,59,0.0,0.0,49,0.00,,SCT250,0.00,VWS V14.01,2013-11-07 22:27:00,
2013-11-07 17:32:00,62.0,42.6,30.00,NE,36,1.0,0.0,49,0.00,,SCT250,0.00,VWS V14.01,2013-11-07 22:32:00,
2013-11-07 17:37:00,61.6,41.7,30.00,North,5,3.0,0.0,48,0.00,,SCT250,0.00,VWS V14.01,2013-11-07 22:37:00,
2013-11-07 17:42:00,61.4,41.0,30.00,NNE,32,2.0,0.0,47,0.00,,SCT250,0.00,VWS V14.01,2013-11-07 22:42:00,
2013-11-07 17:47:00,61.0,40.7,30.01,NE,45,1.0,0.0,47,0.00,,SCT250,0.00,VWS V14.01,2013-11-07 22:47:00,
2013-11-07 17:52:00,60.7,39.8,30.01,NNE,12,1.0,0.0,46,0.00,,SCT250,0.00,VWS V14.01,2013-11-07 22:52:00,
2013-11-07 17:57:00,60.4,39.5,30.01,NNE,33,0.0,0.0,46,0.00,,SCT250,0.00,VWS V14.01,2013-11-07 22:57:00,
2013-11-07 18:02:00,60.1,40.4,30.01,ENE,62,0.0,0.0,48,0.00,,SCT250,0.00,VWS V14.01,2013-11-07 23:02:00,
2013-11-07 18:07:00,59.7,40.0,30.02,East,99,0.0,0.0,48,0.00,,SCT250,0.00,VWS V14.01,2013-11-07 23:07:00,
2013-11-07 18:12:00,59.4,41.3,30.02,North,350,0.0,0.0,51,0.00,,SCT250,0.00,VWS V14.01,2013-11-07 23:12:00,
2013-11-07 18:17:00,58.7,38.0,30.03,North,355,3.0,0.0,46,0.00,,SCT250,0.00,VWS V14.01,2013-11-07 23:17:00,
2013-11-07 18:22:00,58.4,37.7,30.03,NNE,24,1.0,0.0,46,0.00,,SCT250,0.00,VWS V14.01,2013-11-07 23:22:00,
2013-11-07 18:27:00,57.9,37.3,30.04,NNW,344,3.0,0.0,46,0.00,,SCT250,0.00,VWS V14.01,2013-11-07 23:27:00,
2013-11-07 18:32:00,57.7,37.1,30.04,NNE,28,3.0,0.0,46,0.00,,SCT250,0.00,VWS V14.01,2013-11-07 23:32:00,
2013-11-07 18:37:00,57.4,37.3,30.05,NE,35,0.0,0.0,47,0.00,,SCT250,0.00,VWS V14.01,2013-11-07 23:37:00,
2013-11-07 18:42:00,57.1,37.1,30.05,NE,42,0.0,0.0,47,0.00,,SCT250,0.00,VWS V14.01,2013-11-07 23:42:00,
2013-11-07 18:47:00,56.8,37.3,30.05,NE,50,0.0,0.0,48,0.00,,SCT250,0.00,VWS V14.01,2013-11-07 23:47:00,
2013-11-07 18:52:00,56.4,37.5,30.05,NNE,16,1.0,0.0,49,0.00,,SCT250,0.00,VWS V14.01,2013-11-07 23:52:00,
2013-11-07 18:57:00,56.2,37.3,30.05,North,5,2.0,0.0,49,0.00,,SCT250,0.00,VWS V14.01,2013-11-07 23:57:00,
2013-11-07 19:02:00,56.1,36.7,30.05,NNE,12,1.0,0.0,48,0.00,,FEW250,0.00,VWS V14.01,2013-11-08 00:02:00,
2013-11-07 19:07:00,55.9,37.0,30.06,NNE,12,0.0,0.0,49,0.00,,FEW250,0.00,VWS V14.01,2013-11-08 00:07:00,
2013-11-07 19:12:00,55.7,37.9,30.06,NNE,12,0.0,0.0,51,0.00,,FEW250,0.00,VWS V14.01,2013-11-08 00:12:00,
2013-11-07 19:17:00,55.4,38.1,30.06,NNE,12,0.0,0.0,52,0.00,,FEW250,0.00,VWS V14.01,2013-11-08 00:17:00,
2013-11-07 19:22:00,55.0,38.7,30.06,NNE,12,0.0,0.0,54,0.00,,FEW250,0.00,VWS V14.01,2013-11-08 00:22:00,
2013-11-07 19:27:00,54.6,37.3,30.06,NNE,32,2.0,0.0,52,0.00,,FEW250,0.00,VWS V14.01,2013-11-08 00:27:00,
2013-11-07 19:32:00,54.6,36.8,30.07,NNW,346,3.0,0.0,51,0.00,,FEW250,0.00,VWS V14.01,2013-11-08 00:32:00,
2013-11-07 19:37:00,54.6,36.8,30.07,NNW,340,2.0,0.0,51,0.00,,FEW250,0.00,VWS V14.01,2013-11-08 00:37:00,
2013-11-07 19:42:00,54.6,36.8,30.07,West,259,0.0,0.0,51,0.00,,FEW250,0.00,VWS V14.01,2013-11-08 00:42:00,
2013-11-07 19:47:00,54.4,36.7,30.08,WNW,299,0.0,0.0,51,0.00,,FEW250,0.00,VWS V14.01,2013-11-08 00:47:00,
2013-11-07 19:52:00,54.2,37.0,30.08,NW,321,0.0,0.0,52,0.00,,FEW250,0.00,VWS V14.01,2013-11-08 00:52:00,
2013-11-07 19:57:00,53.9,37.7,30.08,NW,326,0.0,0.0,54,0.00,,FEW250,0.00,VWS V14.01,2013-11-08 00:57:00,
2013-11-07 20:02:00,53.7,36.5,30.08,NNE,28,2.0,0.0,52,0.00,,FEW250,0.00,VWS V14.01,2013-11-08 01:02:00,
2013-11-07 20:07:00,53.5,36.3,30.08,NE,55,0.0,0.0,52,0.00,,FEW250,0.00,VWS V14.01,2013-11-08 01:07:00,
2013-11-07 20:12:00,53.3,36.6,30.08,North,355,2.0,0.0,53,0.00,,FEW250,0.00,VWS V14.01,2013-11-08 01:12:00,
2013-11-07 20:17:00,53.0,36.3,30.08,ENE,74,0.0,0.0,53,0.00,,FEW250,0.00,VWS V14.01,2013-11-08 01:17:00,
2013-11-07 20:22:00,52.7,36.1,30.08,NNE,16,0.0,0.0,53,0.00,,FEW250,0.00,VWS V14.01,2013-11-08 01:22:00,
2013-11-07 20:28:00,52.4,35.8,30.08,ENE,57,0.0,0.0,53,0.00,,FEW250,0.00,VWS V14.01,2013-11-08 01:28:00,
2013-11-07 20:33:00,52.3,36.2,30.09,North,5,2.0,0.0,54,0.00,,FEW250,0.00,VWS V14.01,2013-11-08 01:33:00,
2013-11-07 20:38:00,52.1,35.5,30.09,NNE,24,0.0,0.0,53,0.00,,FEW250,0.00,VWS V14.01,2013-11-08 01:38:00,
2013-11-07 20:43:00,51.9,35.8,30.09,NNE,18,2.0,0.0,54,0.00,,FEW250,0.00,VWS V14.01,2013-11-08 01:43:00,
2013-11-07 20:48:00,51.8,35.2,30.09,NNE,32,1.0,0.0,53,0.00,,FEW250,0.00,VWS V14.01,2013-11-08 01:48:00,
2013-11-07 20:53:00,51.6,35.0,30.09,NNE,26,2.0,0.0,53,0.00,,FEW250,0.00,VWS V14.01,2013-11-08 01:53:00,
2013-11-07 20:58:00,51.4,34.9,30.09,NE,35,0.0,0.0,53,0.00,,FEW250,0.00,VWS V14.01,2013-11-08 01:58:00,
2013-11-07 21:03:00,51.1,35.0,30.09,NE,35,0.0,0.0,54,0.00,,FEW250,0.00,VWS V14.01,2013-11-08 02:03:00,
2013-11-07 21:08:00,51.0,35.0,30.09,NNE,13,0.0,0.0,54,0.00,,FEW250,0.00,VWS V14.01,2013-11-08 02:08:00,
2013-11-07 21:13:00,50.8,34.8,30.09,North,355,1.0,0.0,54,0.00,,FEW250,0.00,VWS V14.01,2013-11-08 02:13:00,
2013-11-07 21:18:00,50.6,34.6,30.09,NNE,26,0.0,0.0,54,0.00,,FEW250,0.00,VWS V14.01,2013-11-08 02:18:00,
2013-11-07 21:23:00,50.5,34.5,30.09,NE,42,0.0,0.0,54,0.00,,FEW250,0.00,VWS V14.01,2013-11-08 02:23:00,
2013-11-07 21:28:00,50.3,34.8,30.09,NE,42,0.0,0.0,55,0.00,,FEW250,0.00,VWS V14.01,2013-11-08 02:28:00,
2013-11-07 21:33:00,50.2,34.7,30.09,NNE,33,0.0,0.0,55,0.00,,FEW250,0.00,VWS V14.01,2013-11-08 02:33:00,
2013-11-07 21:38:00,50.1,34.6,30.09,NE,47,0.0,0.0,55,0.00,,FEW250,0.00,VWS V14.01,2013-11-08 02:38:00,
2013-11-07 21:43:00,50.1,34.6,30.09,NE,44,0.0,0.0,55,0.00,,FEW250,0.00,VWS V14.01,2013-11-08 02:43:00,
2013-11-07 21:48:00,50.0,34.5,30.09,NE,38,0.0,0.0,55,0.00,,FEW250,0.00,VWS V14.01,2013-11-08 02:48:00,
2013-11-07 21:53:00,49.9,34.4,30.09,NNE,29,2.0,0.0,55,0.00,,FEW250,0.00,VWS V14.01,2013-11-08 02:53:00,
2013-11-07 21:58:00,49.7,34.7,30.09,NNE,30,0.0,0.0,56,0.00,,FEW250,0.00,VWS V14.01,2013-11-08 02:58:00,
2013-11-07 22:03:00,49.6,34.6,30.09,NE,40,1.0,0.0,56,0.00,,FEW250,0.00,VWS V14.01,2013-11-08 03:03:00,
2013-11-07 22:08:00,49.6,34.6,30.09,ENE,67,0.0,0.0,56,0.00,,FEW250,0.00,VWS V14.01,2013-11-08 03:08:00,
2013-11-07 22:13:00,49.4,34.4,30.09,NE,44,0.0,0.0,56,0.00,,FEW250,0.00,VWS V14.01,2013-11-08 03:13:00,
2013-11-07 22:18:00,49.2,34.6,30.09,NE,44,1.0,0.0,57,0.00,,FEW250,0.00,VWS V14.01,2013-11-08 03:18:00,
2013-11-07 22:23:00,49.1,35.0,30.09,SSE,158,0.0,0.0,58,0.00,,FEW250,0.00,VWS V14.01,2013-11-08 03:23:00,
2013-11-07 22:28:00,49.0,34.9,30.09,SSE,155,0.0,0.0,58,0.00,,FEW250,0.00,VWS V14.01,2013-11-08 03:28:00,
2013-11-07 22:33:00,48.8,35.1,30.09,ENE,68,0.0,0.0,59,0.00,,FEW250,0.00,VWS V14.01,2013-11-08 03:33:00,
2013-11-07 22:38:00,48.6,35.4,30.09,NE,41,0.0,0.0,60,0.00,,FEW250,0.00,VWS V14.01,2013-11-08 03:38:00,
2013-11-07 22:43:00,48.5,34.8,30.09,NE,43,0.0,0.0,59,0.00,,FEW250,0.00,VWS V14.01,2013-11-08 03:43:00,
2013-11-07 22:48:00,48.3,34.7,30.09,NE,44,1.0,0.0,59,0.00,,FEW250,0.00,VWS V14.01,2013-11-08 03:48:00,
2013-11-07 22:53:00,48.1,34.9,30.10,NE,44,0.0,0.0,60,0.00,,FEW250,0.00,VWS V14.01,2013-11-08 03:53:00,
2013-11-07 22:58:00,48.0,35.2,30.10,NE,44,0.0,0.0,61,0.00,,FEW250,0.00,VWS V14.01,2013-11-08 03:58:00,
2013-11-07 23:03:00,47.8,35.0,30.10,NE,44,0.0,0.0,61,0.00,,CLR,0.00,VWS V14.01,2013-11-08 04:03:00,
2013-11-07 23:08:00,47.6,34.8,30.10,NE,44,0.0,0.0,61,0.00,,CLR,0.00,VWS V14.01,2013-11-08 04:08:00,
2013-11-07 23:13:00,47.5,35.5,30.10,NE,44,0.0,0.0,63,0.00,,CLR,0.00,VWS V14.01,2013-11-08 04:13:00,
2013-11-07 23:18:00,47.3,35.4,30.10,NE,44,0.0,0.0,63,0.00,,CLR,0.00,VWS V14.01,2013-11-08 04:18:00,
2013-11-07 23:23:00,47.1,35.2,30.10,NE,44,0.0,0.0,63,0.00,,CLR,0.00,VWS V14.01,2013-11-08 04:23:00,
2013-11-07 23:28:00,46.9,35.0,30.10,NE,44,0.0,0.0,63,0.00,,CLR,0.00,VWS V14.01,2013-11-08 04:28:00,
2013-11-07 23:33:00,46.8,35.7,30.10,NE,44,0.0,0.0,65,0.00,,CLR,0.00,VWS V14.01,2013-11-08 04:33:00,
2013-11-07 23:38:00,46.5,35.4,30.10,NE,44,0.0,0.0,65,0.00,,CLR,0.00,VWS V14.01,2013-11-08 04:38:00,
2013-11-07 23:43:00,46.1,35.0,30.11,NE,44,0.0,0.0,65,0.00,,CLR,0.00,VWS V14.01,2013-11-08 04:43:00,
2013-11-07 23:48:00,45.7,34.6,30.11,NE,44,0.0,0.0,65,0.00,,CLR,0.00,VWS V14.01,2013-11-08 04:48:00,
2013-11-07 23:53:00,45.4,34.3,30.11,NE,44,0.0,0.0,65,0.00,,CLR,0.00,VWS V14.01,2013-11-08 04:53:00,
2013-11-07 23:58:00,45.1,34.0,30.11,NE,44,0.0,0.0,65,0.00,,CLR,0.00,VWS V14.01,2013-11-08 04:58:00,